QPF
0.17 0.18 0.19 0.24 0.26 0.28 0.21 0.13 0.09 0.05 0.03 0.01 0.00 0.00 0.00 0.00 0.00 0.00 0.00 0.00 0.00 0.00 0.00 0.00 0.00 0.00 0.00 0.00 0.00 0.00 0.00 0.00 0.00 0.00 0.00 0.00 0.00 0.00 0.00 0.00 0.00 0.01 0.01
0.14 0.20 0.20 0.20 0.22 0.25 0.21 0.14 0.07 0.04 0.02 0.01 0.00 0.00 0.00 0.00 0.00 0.00 0.00 0.00 0.00 0.00 0.00 0.00 0.00 0.00 0.00 0.00 0.00 0.00 0.00 0.00 0.00 0.00 0.00 0.00 0.00 0.00 0.00 0.00 0.00 0.00 0.00
0.10 0.15 0.16 0.17 0.23 0.21 0.18 0.11 0.06 0.03 0.02 0.01 0.00 0.00 0.00 0.00 0.00 0.00 0.00 0.00 0.00 0.00 0.00 0.00 0.00 0.00 0.00 0.00 0.00 0.00 0.00 0.00 0.00 0.00 0.00 0.00 0.00 0.00 0.00 0.00 0.00 0.00 0.00
0.07 0.11 0.12 0.11 0.17 0.16 0.12 0.07 0.04 0.02 0.01 0.00 0.00 0.00 0.00 0.00 0.00 0.00 0.00 0.00 0.00 0.00 0.00 0.00 0.00 0.00 0.00 0.00 0.00 0.00 0.00 0.00 0.00 0.00 0.00 0.00 0.00 0.00 0.00 0.00 0.00 0.00 0.00
0.04 0.07 0.08 0.07 0.09 0.08 0.06 0.04 0.02 0.01 0.00 0.00 0.00 0.00 0.00 0.00 0.00 0.00 0.00 0.00 0.00 0.00 0.00 0.00 0.00 0.00 0.00 0.00 0.00 0.00 0.00 0.00 0.00 0.00 0.00 0.00 0.00 0.00 0.00 0.00 0.00 0.00 0.00
0.03 0.04 0.06 0.05 0.04 0.04 0.02 0.02 0.01 0.00 0.00 0.00 0.00 0.00 0.00 0.00 0.00 0.00 0.00 0.00 0.00 0.00 0.00 0.00 0.00 0.00 0.00 0.00 0.00 0.00 0.00 0.00 0.00 0.00 0.00 0.00 0.00 0.00 0.00 0.00 0.00 0.00 0.00
0.02 0.03 0.05 0.03 0.02 0.02 0.01 0.01 0.00 0.00 0.00 0.00 0.00 0.00 0.00 0.00 0.00 0.00 0.00 0.00 0.00 0.00 0.00 0.00 0.00 0.00 0.00 0.00 0.00 0.00 0.00 0.00 0.00 0.00 0.00 0.00 0.00 0.00 0.00 0.00 0.00 0.00 0.00
0.00 0.01 0.04 0.02 0.01 0.01 0.01 0.00 0.00 0.00 0.00 0.00 0.00 0.00 0.00 0.00 0.00 0.00 0.00 0.00 0.00 0.00 0.00 0.00 0.00 0.00 0.00 0.00 0.00 0.00 0.00 0.00 0.00 0.00 0.00 0.00 0.00 0.00 0.00 0.00 0.00 0.00 0.00
0.00 0.00 0.02 0.01 0.01 0.01 0.00 0.00 0.00 0.00 0.00 0.00 0.00 0.00 0.00 0.00 0.00 0.00 0.00 0.00 0.00 0.00 0.00 0.00 0.00 0.00 0.00 0.00 0.00 0.00 0.00 0.00 0.00 0.00 0.00 0.00 0.00 0.00 0.00 0.00 0.00 0.00 0.00
0.00 0.00 0.00 0.00 0.00 0.00 0.00 0.00 0.00 0.00 0.00 0.00 0.00 0.00 0.00 0.00 0.00 0.00 0.00 0.00 0.00 0.00 0.00 0.00 0.00 0.00 0.00 0.00 0.00 0.00 0.00 0.00 0.00 0.00 0.00 0.00 0.00 0.00 0.00 0.00 0.00 0.00 0.00
0.00 0.00 0.00 0.00 0.00 0.00 0.00 0.00 0.00 0.00 0.00 0.00 0.00 0.00 0.00 0.00 0.00 0.00 0.00 0.00 0.00 0.00 0.00 0.00 0.00 0.00 0.00 0.00 0.00 0.00 0.00 0.00 0.00 0.00 0.00 0.00 0.00 0.00 0.00 0.00 0.00 0.00 0.00
0.00 0.00 0.00 0.00 0.00 0.00 0.00 0.00 0.00 0.00 0.00 0.00 0.00 0.00 0.00 0.00 0.00 0.00 0.00 0.00 0.00 0.00 0.00 0.00 0.00 0.00 0.00 0.00 0.00 0.00 0.00 0.00 0.00 0.00 0.00 0.00 0.00 0.00 0.00 0.00 0.00 0.00 0.00
0.00 0.00 0.00 0.00 0.00 0.00 0.00 0.00 0.00 0.00 0.00 0.00 0.00 0.00 0.00 0.00 0.00 0.00 0.00 0.00 0.00 0.00 0.00 0.00 0.00 0.00 0.00 0.00 0.00 0.00 0.00 0.00 0.00 0.00 0.00 0.00 0.00 0.00 0.00 0.00 0.00 0.00 0.00
0.00 0.00 0.00 0.00 0.00 0.00 0.00 0.00 0.00 0.00 0.00 0.00 0.00 0.00 0.00 0.00 0.00 0.00 0.00 0.00 0.00 0.00 0.00 0.00 0.00 0.00 0.00 0.00 0.00 0.00 0.00 0.00 0.00 0.00 0.00 0.00 0.00 0.00 0.00 0.00 0.00 0.00 0.00
0.00 0.00 0.00 0.00 0.00 0.00 0.00 0.00 0.00 0.00 0.00 0.00 0.00 0.00 0.00 0.00 0.00 0.00 0.00 0.00 0.00 0.00 0.00 0.00 0.00 0.00 0.00 0.00 0.00 0.00 0.00 0.00 0.00 0.00 0.00 0.00 0.00 0.00 0.00 0.00 0.00 0.00 0.00
0.00 0.00 0.00 0.00 0.00 0.01 0.00 0.00 0.00 0.00 0.00 0.00 0.00 0.00 0.00 0.00 0.00 0.00 0.00 0.00 0.00 0.00 0.00 0.00 0.00 0.00 0.00 0.00 0.00 0.00 0.00 0.00 0.00 0.00 0.00 0.00 0.00 0.00 0.00 0.00 0.00 0.00 0.00
0.01 0.01 0.01 0.01 0.01 0.01 0.01 0.01 0.01 0.01 0.01 0.01 0.00 0.00 0.00 0.00 0.00 0.00 0.00 0.00 0.00 0.00 0.00 0.00 0.00 0.00 0.00 0.00 0.00 0.00 0.00 0.00 0.00 0.00 0.00 0.00 0.00 0.00 0.00 0.00 0.00 0.00 0.00
0.02 0.01 0.01 0.01 0.01 0.01 0.01 0.01 0.01 0.01 0.01 0.01 0.01 0.01 0.01 0.00 0.00 0.00 0.00 0.00 0.00 0.00 0.00 0.00 0.00 0.00 0.00 0.00 0.00 0.00 0.00 0.00 0.00 0.00 0.00 0.00 0.00 0.00 0.00 0.00 0.00 0.00 0.00
0.02 0.02 0.01 0.01 0.01 0.01 0.01 0.01 0.01 0.01 0.01 0.01 0.01 0.02 0.01 0.01 0.01 0.00 0.00 0.00 0.00 0.00 0.00 0.00 0.00 0.00 0.00 0.00 0.00 0.00 0.00 0.00 0.00 0.00 0.00 0.00 0.00 0.00 0.00 0.00 0.00 0.00 0.00
0.02 0.02 0.01 0.01 0.01 0.01 0.01 0.01 0.01 0.01 0.02 0.03 0.03 0.03 0.02 0.02 0.01 0.01 0.01 0.01 0.01 0.01 0.01 0.01 0.01 0.01 0.01 0.01 0.01 0.01 0.01 0.00 0.00 0.00 0.00 0.00 0.00 0.00 0.00 0.00 0.00 0.00 0.00
0.01 0.01 0.01 0.01 0.01 0.01 0.01 0.01 0.02 0.03 0.05 0.05 0.05 0.04 0.04 0.03 0.03 0.03 0.03 0.03 0.02 0.02 0.03 0.03 0.03 0.02 0.02 0.01 0.01 0.01 0.01 0.00 0.00 0.00 0.00 0.00 0.00 0.00 0.00 0.00 0.00 0.00 0.00
0.01 0.00 0.00 0.00 0.00 0.01 0.01 0.01 0.02 0.04 0.05 0.05 0.06 0.06 0.06 0.06 0.05 0.05 0.04 0.04 0.04 0.03 0.03 0.02 0.02 0.01 0.01 0.01 0.01 0.01 0.01 0.01 0.00 0.00 0.00 0.00 0.00 0.00 0.00 0.00 0.00 0.00 0.00
0.00 0.00 0.00 0.00 0.01 0.01 0.01 0.01 0.02 0.03 0.03 0.04 0.05 0.05 0.05 0.05 0.04 0.03 0.03 0.02 0.02 0.01 0.01 0.01 0.01 0.01 0.01 0.01 0.01 0.01 0.01 0.02 0.02 0.01 0.01 0.01 0.01 0.01 0.01 0.00 0.00 0.00 0.00
0.00 0.00 0.00 0.00 0.01 0.01 0.01 0.01 0.02 0.02 0.02 0.03 0.03 0.04 0.03 0.03 0.03 0.02 0.02 0.01 0.02 0.01 0.01 0.01 0.01 0.01 0.01 0.01 0.01 0.01 0.02 0.02 0.02 0.01 0.01 0.01 0.01 0.01 0.01 0.01 0.01 0.00 0.00
0.01 0.01 0.01 0.01 0.01 0.01 0.01 0.01 0.01 0.01 0.01 0.01 0.02 0.02 0.02 0.02 0.02 0.02 0.01 0.01 0.01 0.01 0.01 0.01 0.01 0.01 0.01 0.01 0.02 0.02 0.01 0.02 0.02 0.02 0.02 0.01 0.01 0.01 0.01 0.01 0.01 0.01 0.01
0.00 0.00 0.00 0.00 0.00 0.00 0.00 0.00 0.00 0.00 0.00 0.01 0.01 0.01 0.01 0.01 0.01 0.01 0.01 0.01 0.01 0.01 0.00 0.00 0.01 0.01 0.01 0.01 0.01 0.02 0.02 0.02 0.02 0.02 0.01 0.01 0.02 0.02 0.01 0.01 0.01 0.01 0.01
MSLP
1013.20 1013.53 1013.88 1014.22 1014.53 1014.81 1015.07 1015.36 1015.68 1016.06 1016.49 1016.97 1017.45 1017.91 1018.32 1018.65 1018.89 1019.06 1019.16 1019.21 1019.24 1019.27 1019.30 1019.32 1019.35 1019.37 1019.38 1019.38 1019.38 1019.39 1019.42 1019.46 1019.52 1019.59 1019.64 1019.65 1019.62 1019.51 1019.34 1019.10 1018.83 1018.55 1018.30
1013.10 1013.51 1013.93 1014.32 1014.66 1014.96 1015.23 1015.51 1015.84 1016.22 1016.67 1017.15 1017.64 1018.10 1018.49 1018.80 1019.02 1019.15 1019.23 1019.27 1019.31 1019.36 1019.43 1019.51 1019.59 1019.66 1019.71 1019.73 1019.73 1019.72 1019.72 1019.74 1019.78 1019.83 1019.89 1019.92 1019.91 1019.84 1019.70 1019.49 1019.23 1018.94 1018.65
1012.93 1013.38 1013.85 1014.28 1014.65 1014.96 1015.24 1015.52 1015.85 1016.25 1016.71 1017.22 1017.73 1018.21 1018.61 1018.92 1019.12 1019.23 1019.29 1019.32 1019.36 1019.43 1019.52 1019.63 1019.76 1019.86 1019.94 1019.97 1019.98 1019.96 1019.95 1019.95 1019.98 1020.04 1020.11 1020.17 1020.20 1020.18 1020.09 1019.93 1019.69 1019.40 1019.09
1012.70 1013.18 1013.68 1014.13 1014.51 1014.82 1015.10 1015.38 1015.72 1016.13 1016.61 1017.15 1017.69 1018.19 1018.62 1018.94 1019.15 1019.26 1019.31 1019.34 1019.38 1019.44 1019.55 1019.69 1019.83 1019.96 1020.06 1020.11 1020.12 1020.11 1020.10 1020.10 1020.13 1020.20 1020.29 1020.39 1020.47 1020.51 1020.47 1020.35 1020.15 1019.88 1019.56
1012.47 1012.97 1013.48 1013.94 1014.31 1014.61 1014.88 1015.15 1015.47 1015.88 1016.38 1016.93 1017.50 1018.04 1018.50 1018.85 1019.08 1019.20 1019.26 1019.29 1019.33 1019.40 1019.51 1019.66 1019.82 1019.96 1020.08 1020.15 1020.17 1020.17 1020.16 1020.17 1020.22 1020.30 1020.42 1020.56 1020.68 1020.76 1020.78 1020.71 1020.55 1020.30 1019.99
1012.28 1012.79 1013.31 1013.76 1014.13 1014.41 1014.64 1014.88 1015.18 1015.57 1016.06 1016.62 1017.20 1017.76 1018.25 1018.63 1018.89 1019.05 1019.13 1019.17 1019.22 1019.29 1019.41 1019.55 1019.72 1019.87 1020.00 1020.08 1020.12 1020.14 1020.15 1020.17 1020.23 1020.33 1020.47 1020.63 1020.79 1020.91 1020.96 1020.94 1020.82 1020.60 1020.31
1012.17 1012.68 1013.20 1013.65 1013.99 1014.25 1014.44 1014.64 1014.90 1015.25 1015.71 1016.25 1016.83 1017.40 1017.91 1018.31 1018.61 1018.79 1018.90 1018.97 1019.03 1019.11 1019.23 1019.38 1019.54 1019.70 1019.83 1019.93 1019.99 1020.02 1020.05 1020.09 1020.16 1020.27 1020.42 1020.60 1020.77 1020.91 1020.99 1020.99 1020.91 1020.73 1020.47
1012.10 1012.62 1013.15 1013.59 1013.92 1014.15 1014.31 1014.46 1014.66 1014.96 1015.37 1015.87 1016.43 1016.99 1017.50 1017.93 1018.25 1018.47 1018.61 1018.70 1018.78 1018.87 1018.99 1019.13 1019.30 1019.45 1019.59 1019.70 1019.77 1019.82 1019.86 1019.92 1020.00 1020.12 1020.26 1020.43 1020.60 1020.74 1020.84 1020.86 1020.81 1020.67 1020.45
1012.03 1012.57 1013.09 1013.53 1013.85 1014.06 1014.19 1014.31 1014.47 1014.72 1015.07 1015.53 1016.05 1016.59 1017.09 1017.53 1017.86 1018.11 1018.27 1018.39 1018.48 1018.58 1018.70 1018.85 1019.00 1019.16 1019.29 1019.41 1019.49 1019.55 1019.60 1019.67 1019.75 1019.86 1019.99 1020.14 1020.30 1020.43 1020.52 1020.56 1020.53 1020.43 1020.25
1011.89 1012.43 1012.96 1013.39 1013.71 1013.91 1014.03 1014.13 1014.26 1014.48 1014.80 1015.21 1015.69 1016.20 1016.69 1017.12 1017.47 1017.73 1017.92 1018.05 1018.16 1018.27 1018.39 1018.53 1018.67 1018.82 1018.95 1019.06 1019.15 1019.22 1019.28 1019.34 1019.42 1019.51 1019.63 1019.76 1019.89 1020.00 1020.08 1020.12 1020.11 1020.04 1019.91
1011.63 1012.15 1012.66 1013.08 1013.40 1013.60 1013.73 1013.83 1013.97 1014.18 1014.48 1014.87 1015.33 1015.82 1016.29 1016.72 1017.07 1017.34 1017.54 1017.70 1017.82 1017.93 1018.05 1018.18 1018.32 1018.45 1018.57 1018.68 1018.76 1018.83 1018.90 1018.96 1019.03 1019.11 1019.21 1019.31 1019.42 1019.50 1019.57 1019.60 1019.60 1019.55 1019.46
1011.22 1011.69 1012.16 1012.56 1012.86 1013.07 1013.22 1013.36 1013.52 1013.76 1014.07 1014.47 1014.92 1015.40 1015.87 1016.29 1016.64 1016.92 1017.14 1017.30 1017.44 1017.56 1017.69 1017.81 1017.94 1018.06 1018.17 1018.27 1018.35 1018.42 1018.48 1018.54 1018.61 1018.68 1018.76 1018.84 1018.92 1018.99 1019.04 1019.06 1019.06 1019.03 1018.96
1010.71 1011.10 1011.49 1011.83 1012.10 1012.32 1012.49 1012.67 1012.89 1013.17 1013.53 1013.95 1014.42 1014.90 1015.37 1015.79 1016.15 1016.44 1016.67 1016.85 1017.01 1017.14 1017.27 1017.39 1017.52 1017.63 1017.74 1017.83 1017.90 1017.97 1018.03 1018.09 1018.16 1018.23 1018.30 1018.37 1018.43 1018.48 1018.51 1018.53 1018.52 1018.49 1018.44
1010.18 1010.45 1010.73 1010.99 1011.21 1011.41 1011.60 1011.82 1012.10 1012.44 1012.85 1013.31 1013.80 1014.30 1014.77 1015.20 1015.57 1015.87 1016.12 1016.32 1016.49 1016.65 1016.79 1016.92 1017.05 1017.16 1017.26 1017.35 1017.42 1017.49 1017.55 1017.62 1017.69 1017.76 1017.83 1017.89 1017.95 1017.99 1018.01 1018.01 1017.99 1017.96 1017.91
1009.76 1009.88 1010.02 1010.16 1010.31 1010.47 1010.66 1010.91 1011.23 1011.62 1012.07 1012.57 1013.09 1013.60 1014.08 1014.51 1014.88 1015.20 1015.46 1015.68 1015.88 1016.06 1016.22 1016.37 1016.51 1016.63 1016.73 1016.82 1016.89 1016.96 1017.02 1017.09 1017.17 1017.25 1017.33 1017.40 1017.45 1017.49 1017.50 1017.50 1017.47 1017.42 1017.37
1009.55 1009.52 1009.50 1009.52 1009.56 1009.66 1009.83 1010.08 1010.42 1010.83 1011.31 1011.83 1012.35 1012.86 1013.34 1013.76 1014.13 1014.44 1014.72 1014.96 1015.19 1015.39 1015.58 1015.75 1015.90 1016.03 1016.13 1016.22 1016.29 1016.36 1016.42 1016.50 1016.58 1016.67 1016.76 1016.84 1016.91 1016.95 1016.96 1016.95 1016.91 1016.85 1016.78
1009.63 1009.45 1009.30 1009.18 1009.12 1009.14 1009.26 1009.48 1009.81 1010.21 1010.68 1011.18 1011.69 1012.17 1012.61 1013.01 1013.36 1013.67 1013.95 1014.20 1014.44 1014.67 1014.88 1015.07 1015.23 1015.36 1015.47 1015.55 1015.62 1015.68 1015.74 1015.81 1015.90 1015.99 1016.10 1016.19 1016.27 1016.33 1016.35 1016.34 1016.29 1016.23 1016.14
1010.01 1009.73 1009.47 1009.24 1009.09 1009.03 1009.08 1009.25 1009.52 1009.89 1010.30 1010.75 1011.20 1011.62 1012.01 1012.35 1012.66 1012.94 1013.21 1013.46 1013.70 1013.94 1014.16 1014.36 1014.53 1014.66 1014.76 1014.83 1014.88 1014.92 1014.97 1015.03 1015.11 1015.20 1015.31 1015.42 1015.52 1015.59 1015.62 1015.63 1015.59 1015.52 1015.44
1010.65 1010.32 1010.00 1009.70 1009.48 1009.35 1009.33 1009.43 1009.63 1009.92 1010.25 1010.61 1010.97 1011.30 1011.61 1011.88 1012.13 1012.36 1012.58 1012.81 1013.04 1013.27 1013.48 1013.67 1013.83 1013.95 1014.03 1014.07 1014.10 1014.11 1014.13 1014.16 1014.22 1014.31 1014.41 1014.52 1014.63 1014.72 1014.78 1014.80 1014.79 1014.74 1014.66
1011.45 1011.13 1010.80 1010.48 1010.22 1010.04 1009.96 1009.99 1010.11 1010.30 1010.53 1010.78 1011.03 1011.26 1011.46 1011.64 1011.80 1011.97 1012.14 1012.32 1012.51 1012.71 1012.90 1013.06 1013.19 1013.28 1013.32 1013.33 1013.31 1013.28 1013.25 1013.25 1013.27 1013.33 1013.41 1013.52 1013.63 1013.74 1013.82 1013.88 1013.89 1013.87 1013.82
1012.30 1012.04 1011.74 1011.44 1011.18 1010.98 1010.86 1010.83 1010.87 1010.96 1011.09 1011.23 1011.35 1011.47 1011.56 1011.64 1011.71 1011.80 1011.90 1012.02 1012.16 1012.30 1012.44 1012.56 1012.64 1012.68 1012.67 1012.63 1012.55 1012.46 1012.38 1012.31 1012.29 1012.30 1012.35 1012.44 1012.54 1012.66 1012.77 1012.85 1012.91 1012.94 1012.93
1013.11 1012.93 1012.70 1012.45 1012.22 1012.02 1011.88 1011.80 1011.77 1011.78 1011.81 1011.84 1011.86 1011.87 1011.86 1011.84 1011.83 1011.83 1011.86 1011.90 1011.97 1012.05 1012.12 1012.18 1012.20 1012.17 1012.10 1011.99 1011.85 1011.69 1011.54 1011.40 1011.31 1011.26 1011.26 1011.31 1011.40 1011.51 1011.63 1011.75 1011.86 1011.94 1011.99
1013.78 1013.70 1013.55 1013.37 1013.18 1013.00 1012.86 1012.75 1012.67 1012.61 1012.57 1012.52 1012.45 1012.37 1012.28 1012.18 1012.09 1012.01 1011.96 1011.93 1011.92 1011.92 1011.92 1011.90 1011.84 1011.75 1011.61 1011.43 1011.21 1010.98 1010.74 1010.53 1010.36 1010.23 1010.17 1010.16 1010.21 1010.31 1010.44 1010.58 1010.73 1010.87 1010.99
1014.30 1014.30 1014.22 1014.10 1013.95 1013.81 1013.67 1013.55 1013.44 1013.34 1013.24 1013.13 1013.01 1012.87 1012.72 1012.56 1012.41 1012.27 1012.14 1012.03 1011.94 1011.86 1011.78 1011.67 1011.54 1011.37 1011.15 1010.90 1010.61 1010.30 1009.98 1009.69 1009.43 1009.23 1009.08 1009.01 1009.01 1009.08 1009.20 1009.36 1009.55 1009.74 1009.92
1014.66 1014.70 1014.68 1014.60 1014.49 1014.37 1014.24 1014.11 1013.99 1013.87 1013.75 1013.61 1013.46 1013.29 1013.10 1012.91 1012.71 1012.51 1012.32 1012.14 1011.97 1011.80 1011.63 1011.44 1011.22 1010.97 1010.68 1010.35 1009.99 1009.61 1009.22 1008.85 1008.51 1008.23 1008.01 1007.87 1007.81 1007.84 1007.94 1008.11 1008.32 1008.55 1008.79
1014.87 1014.93 1014.92 1014.87 1014.78 1014.68 1014.56 1014.44 1014.32 1014.19 1014.06 1013.91 1013.75 1013.57 1013.37 1013.16 1012.92 1012.68 1012.43 1012.18 1011.93 1011.67 1011.40 1011.12 1010.81 1010.48 1010.12 1009.72 1009.30 1008.86 1008.41 1007.97 1007.57 1007.22 1006.93 1006.73 1006.62 1006.60 1006.68 1006.84 1007.06 1007.33 1007.60
Thickness
5721 5723 5724 5724 5724 5724 5724 5724 5723 5722 5721 5719 5715 5712 5710 5711 5710 5710 5709 5707 5706 5705 5704 5702 5701 5700 5699 5697 5696 5695 5693 5692 5692 5693 5692 5693 5694 5695 5696 5697 5698 5699 5700
5719 5722 5723 5723 5722 5723 5722 5721 5721 5720 5720 5719 5717 5714 5712 5710 5709 5708 5707 5706 5704 5703 5702 5700 5698 5697 5695 5694 5693 5692 5689 5688 5688 5687 5685 5684 5685 5688 5690 5691 5692 5693 5695
5719 5720 5720 5722 5722 5721 5721 5722 5720 5719 5719 5718 5715 5713 5710 5708 5707 5706 5705 5705 5703 5701 5700 5698 5696 5694 5693 5691 5690 5689 5687 5684 5683 5683 5681 5678 5676 5678 5682 5683 5684 5686 5688
5723 5723 5722 5722 5723 5724 5724 5722 5720 5719 5719 5718 5716 5714 5710 5707 5707 5706 5705 5704 5702 5700 5699 5697 5694 5692 5691 5689 5688 5686 5684 5682 5679 5678 5677 5676 5674 5673 5673 5677 5678 5680 5681
5728 5727 5727 5726 5727 5727 5725 5723 5721 5720 5719 5718 5716 5714 5711 5709 5707 5705 5704 5703 5702 5700 5698 5696 5693 5691 5689 5687 5685 5683 5681 5679 5677 5675 5673 5671 5669 5668 5668 5667 5669 5672 5674
5732 5731 5732 5730 5728 5727 5726 5724 5722 5720 5719 5718 5716 5714 5712 5709 5706 5704 5702 5701 5700 5699 5698 5695 5693 5690 5688 5686 5683 5681 5679 5676 5674 5672 5670 5668 5666 5664 5662 5661 5661 5662 5666
5735 5733 5731 5730 5729 5728 5727 5726 5722 5720 5719 5718 5716 5715 5714 5711 5708 5706 5703 5701 5699 5698 5697 5695 5692 5689 5687 5684 5681 5678 5676 5674 5672 5669 5667 5665 5663 5661 5659 5656 5655 5655 5658
5738 5737 5736 5734 5733 5732 5730 5727 5724 5722 5721 5719 5718 5716 5714 5712 5709 5707 5705 5702 5700 5699 5697 5694 5691 5688 5686 5683 5680 5677 5674 5672 5669 5667 5664 5662 5660 5658 5656 5653 5651 5649 5650
5741 5740 5739 5738 5736 5734 5732 5730 5728 5725 5723 5721 5719 5716 5714 5712 5710 5708 5705 5702 5700 5698 5695 5692 5690 5687 5684 5681 5677 5674 5672 5669 5667 5664 5662 5659 5657 5654 5652 5649 5647 5645 5643
5744 5743 5742 5741 5740 5739 5737 5734 5731 5729 5726 5723 5720 5718 5715 5713 5711 5707 5704 5701 5699 5696 5694 5691 5688 5685 5682 5679 5675 5672 5670 5667 5664 5661 5658 5656 5653 5650 5648 5645 5642 5640 5639
5747 5747 5746 5745 5743 5740 5738 5735 5732 5730 5727 5724 5721 5719 5716 5713 5710 5706 5704 5700 5697 5694 5692 5689 5686 5682 5680 5676 5673 5670 5667 5664 5661 5658 5655 5652 5650 5646 5644 5640 5637 5635 5632
5752 5751 5749 5746 5743 5741 5739 5737 5734 5732 5730 5727 5722 5719 5716 5712 5708 5705 5702 5699 5695 5693 5690 5686 5683 5680 5677 5674 5670 5667 5665 5661 5658 5655 5652 5649 5646 5642 5639 5636 5633 5630 5628
5752 5750 5748 5745 5744 5743 5741 5739 5736 5735 5732 5727 5722 5718 5714 5711 5707 5704 5701 5697 5693 5690 5687 5683 5680 5678 5675 5671 5668 5665 5662 5658 5655 5652 5649 5646 5642 5638 5635 5631 5628 5626 5624
5752 5749 5746 5746 5745 5744 5742 5740 5738 5736 5732 5727 5722 5717 5714 5711 5707 5703 5699 5695 5691 5688 5684 5681 5678 5675 5672 5669 5665 5661 5658 5655 5652 5649 5646 5642 5638 5635 5632 5628 5624 5621 5617
5749 5748 5746 5745 5744 5742 5741 5739 5738 5734 5730 5724 5720 5717 5714 5709 5704 5700 5696 5692 5688 5685 5682 5678 5675 5672 5669 5666 5662 5659 5655 5651 5648 5645 5642 5639 5636 5633 5629 5625 5621 5616 5612
5745 5745 5745 5744 5742 5741 5740 5738 5736 5732 5727 5722 5719 5716 5711 5705 5701 5697 5693 5688 5685 5681 5678 5675 5672 5669 5666 5664 5660 5656 5652 5648 5645 5642 5639 5636 5632 5629 5626 5622 5618 5613 5608
5738 5739 5738 5738 5738 5739 5739 5736 5733 5729 5723 5719 5716 5711 5707 5702 5699 5694 5689 5685 5681 5677 5674 5671 5668 5666 5664 5660 5656 5653 5649 5645 5642 5638 5635 5632 5630 5625 5621 5618 5614 5610 5606
5729 5730 5731 5732 5733 5733 5733 5731 5727 5722 5717 5712 5709 5706 5701 5697 5693 5688 5685 5681 5677 5673 5670 5668 5665 5662 5660 5656 5652 5648 5644 5642 5638 5635 5631 5628 5625 5621 5616 5612 5609 5606 5602
5719 5719 5721 5722 5724 5723 5723 5721 5717 5713 5709 5705 5702 5699 5695 5691 5687 5682 5680 5677 5672 5670 5667 5665 5662 5659 5657 5653 5648 5642 5639 5636 5635 5631 5627 5623 5620 5617 5611 5606 5603 5600 5598
5709 5709 5710 5711 5711 5709 5710 5708 5704 5700 5697 5695 5692 5690 5687 5683 5679 5676 5673 5670 5667 5665 5662 5659 5657 5654 5653 5650 5644 5637 5633 5631 5630 5627 5623 5619 5616 5613 5606 5600 5597 5595 5594
5697 5697 5698 5697 5694 5695 5696 5692 5689 5686 5685 5683 5682 5679 5677 5674 5670 5667 5665 5661 5658 5656 5653 5651 5650 5647 5645 5643 5638 5632 5626 5625 5624 5622 5620 5617 5612 5607 5602 5596 5593 5592 5589
5684 5684 5683 5681 5679 5680 5680 5677 5673 5672 5672 5670 5668 5666 5663 5661 5659 5656 5653 5650 5648 5645 5642 5640 5639 5638 5636 5633 5631 5626 5620 5618 5616 5616 5616 5613 5608 5602 5597 5592 5589 5584 5578
5671 5670 5668 5666 5665 5664 5664 5661 5658 5658 5658 5656 5654 5651 5649 5646 5644 5642 5639 5637 5634 5631 5630 5628 5627 5627 5626 5623 5620 5616 5612 5609 5606 5608 5608 5605 5600 5594 5589 5586 5582 5576 5571
5658 5656 5655 5653 5650 5649 5648 5646 5644 5644 5643 5640 5637 5635 5632 5630 5628 5626 5624 5621 5619 5617 5615 5613 5612 5613 5612 5610 5608 5605 5603 5599 5596 5596 5596 5593 5589 5584 5581 5579 5574 5570 5568
5645 5643 5641 5639 5636 5635 5634 5633 5631 5631 5628 5625 5622 5619 5617 5614 5612 5611 5608 5606 5604 5601 5598 5597 5596 5595 5596 5596 5592 5588 5588 5587 5585 5582 5581 5581 5579 5576 5574 5571 5568 5564 5560
5634 5632 5630 5628 5626 5624 5622 5621 5618 5616 5613 5610 5607 5604 5601 5599 5597 5595 5595 5593 5589 5587 5584 5580 5577 5578 5577 5576 5575 5573 5571 5569 5566 5563 5567 5570 5570 5569 5568 5565 5562 5558 5555